Change the Weather History Date:

Friday, March 14, 2014

  Actual Average Record
Temperature  
Mean Temperature 38 °F -  
Max Temperature 43 °F 51 °F 64 °F (2001)
Min Temperature 32 °F 31 °F 27 °F (2009)
Degree Days  
Heating Degree Days 28    
Moisture  
Dew Point 34 °F    
Average Humidity 92    
Maximum Humidity 97    
Minimum Humidity 85    
Precipitation  
Precipitation 0.00 in - - ()
Sea Level Pressure  
Sea Level Pressure 30.16 in    
Wind  
Wind Speed 3 mph (NNW)    
Max Wind Speed 7 mph    
Max Gust Speed -    
Averages and records for this station are not official NWS values.
T = Trace of Precipitation, MM = Missing Value Source: NWS Daily Summary

Daily Weather History Graph

Daily Weather History Graph

Search for Another Location

Airport or City:

Trip Planner

Search our weather history database for the weather conditions in past years. The results will help you decide how hot, cold, wet, or windy it might be!

Date:

Astronomy

Mar. 14, 2014 Rise Set
Actual Time 7:56 AM MDT 7:46 PM MDT
Civil Twilight 7:27 AM MDT 8:16 PM MDT
Nautical Twilight 6:52 AM MDT 8:51 PM MDT
Astronomical Twilight 6:16 AM MDT 9:27 PM MDT
Moon 6:09 PM MDT (3/14) 6:43 AM MDT (3/14)
Length of Visible Light 12h 49m
Length of Day
11h 50m
Waxing Gibbous, 96% of the Moon is Illuminated
Mar 14
Waxing Gibbous
Mar 16
Full
Mar 23
Last Quarter
Mar 30
New
Apr 7
First Quarter

Hourly Weather History & Observations

Time (MDT) Temp. Windchill Dew Point Humidity Pressure Visibility Wind Dir Wind Speed Gust Speed Precip Events Conditions
12:52 AM 34.0 °F 29.8 °F 32.0 °F 92% 30.12 in - NW 4.6 mph - N/A   Unknown
1:52 AM 33.1 °F 28.7 °F 30.9 °F 92% 30.12 in - North 4.6 mph - N/A   Unknown
2:52 AM 33.1 °F 26.9 °F 30.0 °F 89% 30.12 in - NW 6.9 mph - N/A   Unknown
3:52 AM 32.0 °F 27.5 °F 30.0 °F 92% 30.11 in - NNW 4.6 mph - N/A   Unknown
4:52 AM 32.0 °F 26.4 °F 30.0 °F 92% 30.11 in - NNW 5.8 mph - N/A   Unknown
5:52 AM 32.0 °F 27.5 °F 30.0 °F 92% 30.12 in - NNW 4.6 mph - N/A   Unknown
6:52 AM 33.1 °F 30.0 °F 30.0 °F 89% 30.12 in - WNW 3.5 mph - N/A   Unknown
7:52 AM 33.1 °F 30.0 °F 30.9 °F 92% 30.13 in - NNW 3.5 mph - N/A   Unknown
8:52 AM 35.1 °F 31.0 °F 30.9 °F 85% 30.14 in - NNW 4.6 mph - N/A   Unknown
9:52 AM 34.0 °F 31.0 °F 32.0 °F 92% 30.16 in - NNW 3.5 mph - N/A   Unknown
10:52 AM 35.1 °F 31.0 °F 33.1 °F 92% 30.15 in - North 4.6 mph - N/A   Unknown
11:52 AM 37.0 °F - 34.0 °F 89% 30.14 in - Calm Calm - N/A   Unknown
12:52 PM 37.9 °F - 36.0 °F 93% 30.14 in - Calm Calm - N/A   Unknown
1:52 PM 37.9 °F - 36.0 °F 93% 30.13 in - Calm Calm - N/A   Unknown
2:52 PM 39.0 °F - 37.0 °F 93% 30.14 in - Calm Calm - N/A   Unknown
3:52 PM 39.9 °F - 37.9 °F 93% 30.13 in - Calm Calm - N/A   Unknown
4:52 PM 42.1 °F - 39.0 °F 89% 30.12 in - Calm Calm - N/A   Unknown
5:52 PM 42.1 °F - 39.9 °F 92% 30.10 in - Calm Calm - N/A   Unknown
6:52 PM 43.0 °F - 39.0 °F 86% 30.16 in - North - - N/A   Unknown
7:52 PM 39.0 °F - 37.9 °F 96% 30.21 in - Calm Calm - N/A   Unknown
8:52 PM 39.0 °F - 37.0 °F 93% 30.23 in - Calm Calm - N/A   Unknown
9:52 PM 37.9 °F - 37.0 °F 97% 30.27 in - Calm Calm - N/A   Unknown
10:52 PM 37.9 °F 35.5 °F 37.0 °F 97% 30.29 in - North 3.5 mph - N/A   Unknown
11:52 PM 37.9 °F - 37.0 °F 97% 30.31 in - Calm Calm - N/A   Unknown